Location: Laterina
(43.5167°N, 11.7167°E)
Time: 13:18:48
(UTC+00:00)

Cosmos 2026 Rocket - Pass Details

Date: 25 January 2021
Orbit: 940 x 1000 km, 82.9° (Epoch: 28 February)

Event Time Altitude Azimuth Distance (km) Brightness Sun altitude
Rises 19:47:14 0° 245° (WSW) 3,623 7.6 -38.3°
Reaches altitude 10° 19:51:23 10° 272° (W) 2,696 7.0 -39.0°
Maximum altitude 19:54:04 13° 298° (WNW) 2,498 6.7 -39.5°
Drops below altitude 10° 19:56:46 10° 325° (NW) 2,721 6.8 -40.0°
Sets 20:01:02 0° 352° (N) 3,689 7.2 -40.7°
